Find Zhongxing 3A

NORAD ID: 60179 Int'l Des: 2024-122 Owner: ZLZB Country: CN operational
HEOCIRCULARGSOGEO

实时位置

正在加载3D地球...

关于 Zhongxing 3A

正在加载描述...

即将过境

Passes for default location (London). Set your location on the main map for personalized predictions.

高度历史

Loading altitude history...

两行轨道根数

1 60179U 24122A 26137.83933815 -.00000307 00000-0 00000+0 0 9993
2 60179 0.0499 92.5030 0001389 335.6592 211.0938 1.00267622 7007
Epoch: May 17, 2026 • Age: 7 hours

当前状态

高度 35782.9 km
速度 3.07 km/s
星下点 -0.00°S, 101.53°E
发射日期 Jun 29, 2024
运行时间 1.8 years
类型 other

技术详情

分类 Payload
质量 5000.00 kg
干质量 2500.00 kg
总质量 5000.00 kg
长度 5.00 m
直径 2.50 m
跨度 30.00 m
形状 Box + 2 Pan
制造商 SISE
平台类型 FY-4
阶段状态 In Orbit
所有者/国家 ZLZB/CN

Most Searched